Wind_Speed
27 26 25 23 22 21 20 22 23 22 22 23 24 23 25 29 32 35 38 39 40 40 42 45 49 48 41 36 33 28 25 26 27 27 26 23 20 19 18 16 17 18 18 20 21 22 23 25 24 24 24 24 23 23 22 22 24 25 27 26 23 22 21 22 20 16 13 12 12 10 10 11 13 14 16 17 18 17 16 14 13 15 18 20 20
28 27 26 25 24 24 24 24 22 22 24 24 24 24 28 31 33 36 37 38 38 39 42 47 49 44 37 35 32 27 25 25 26 26 25 23 21 20 20 19 18 18 20 21 22 23 25 26 26 26 26 25 25 24 22 23 25 27 28 26 22 21 20 20 19 15 12 12 12 11 9 10 11 13 14 15 16 17 17 17 16 15 16 18 18
28 27 26 26 26 26 26 25 22 22 24 25 25 27 30 32 34 35 36 37 37 39 43 46 46 41 36 35 31 27 25 25 26 25 24 23 21 21 21 20 18 20 22 24 24 25 26 27 26 26 26 25 25 23 22 24 26 28 28 23 20 19 18 18 17 15 13 12 13 13 12 12 12 13 14 14 15 16 18 18 18 18 18 18 19
28 27 27 28 28 27 26 24 23 24 26 26 27 30 31 32 34 35 36 36 37 40 43 44 43 39 36 35 32 27 25 26 27 25 23 22 22 22 21 20 21 23 24 25 25 25 26 27 26 25 24 23 23 24 26 27 27 28 24 19 17 17 16 16 16 15 14 12 13 15 15 16 15 15 15 15 15 16 17 18 19 20 20 20 21
31 30 30 30 29 27 25 24 25 27 28 29 30 30 31 33 34 35 36 37 39 41 42 43 43 39 37 36 32 27 26 27 27 26 23 22 23 23 22 23 25 25 25 24 24 25 26 26 25 25 25 25 26 28 28 27 27 25 20 15 15 15 15 16 16 16 16 14 14 15 16 17 18 18 18 18 18 17 17 18 19 19 20 21 22
34 34 32 30 29 28 27 27 28 29 30 30 30 31 32 34 34 36 38 40 41 42 43 45 45 41 39 37 31 27 28 28 27 26 25 23 23 23 23 24 24 24 24 23 24 26 27 26 26 26 28 29 29 29 27 26 26 22 17 14 15 15 16 16 17 16 16 16 14 14 14 15 17 18 19 19 19 19 18 18 19 19 20 21 22
33 30 29 28 28 28 28 28 28 29 29 29 30 32 33 33 35 39 42 43 43 45 46 46 44 40 38 34 28 28 31 31 29 27 26 26 26 25 25 25 23 23 23 24 25 26 27 27 27 28 29 28 28 27 25 25 24 20 15 14 15 16 17 17 17 16 17 17 16 15 13 13 14 15 16 17 18 18 18 18 19 19 20 21 22
30 27 27 26 26 25 24 23 24 25 27 29 31 32 32 33 38 43 45 45 46 46 45 42 39 37 34 29 28 33 36 35 32 30 29 30 30 29 29 28 26 25 25 25 27 28 28 27 26 27 27 27 26 26 25 25 24 21 17 16 17 18 19 18 15 14 15 17 19 19 17 16 16 16 16 17 17 18 18 18 18 19 20 21 22
28 27 28 28 27 25 22 21 23 26 28 30 32 32 33 37 43 45 45 46 45 44 41 38 36 34 31 29 33 38 38 37 34 32 31 31 32 32 32 31 29 27 28 28 29 28 27 26 26 27 26 26 26 27 26 26 26 24 22 19 19 20 21 19 15 13 14 15 17 20 21 21 21 20 20 20 19 20 20 19 19 20 20 21 21
30 29 30 31 30 28 27 26 26 27 29 31 33 33 36 41 45 45 45 44 43 40 37 37 35 33 32 34 39 41 40 39 37 34 34 33 33 34 34 33 32 31 31 31 30 27 27 27 28 27 27 27 28 28 27 27 28 27 25 23 22 23 23 19 15 14 15 16 17 19 21 22 23 24 24 24 24 23 23 23 23 22 22 21 22
35 32 33 33 31 30 30 29 30 32 33 34 34 36 41 45 45 44 43 41 42 41 37 36 35 34 35 37 41 44 43 41 38 36 34 34 34 34 34 34 33 32 32 32 30 29 29 29 28 26 26 27 28 27 27 27 28 28 26 25 26 26 24 20 17 16 17 18 18 18 19 21 22 23 24 25 25 25 25 24 24 23 23 22 22
37 35 35 35 33 31 31 31 34 36 37 37 38 42 46 46 44 43 42 41 42 43 41 38 37 37 39 41 44 46 43 40 38 35 34 34 34 35 35 35 33 31 31 31 30 29 30 29 26 24 25 26 26 26 26 27 28 28 27 27 26 24 23 22 20 20 21 21 21 21 22 22 23 23 24 24 24 23 23 23 23 23 23 22 22
38 39 39 39 36 35 34 35 35 37 39 41 43 46 46 45 44 44 46 47 45 45 45 42 41 41 44 46 48 46 43 40 37 36 36 36 36 36 35 34 32 30 29 30 29 30 30 30 27 26 27 28 29 29 29 29 29 28 28 28 26 24 23 24 24 24 24 24 23 23 23 22 22 23 24 23 23 22 22 22 22 22 23 23 23
39 41 43 43 41 39 38 39 39 41 42 44 46 47 44 44 47 49 51 50 48 48 48 46 45 46 49 51 50 48 44 40 36 36 38 38 38 37 33 31 30 29 29 29 31 32 33 34 33 32 31 30 31 32 32 32 31 30 30 30 29 26 26 28 28 27 26 25 25 24 22 20 21 22 23 22 23 23 23 22 22 23 23 24 24
42 44 45 44 43 42 41 41 42 43 44 46 47 45 43 46 50 52 52 50 49 49 49 49 50 51 52 53 52 48 43 38 35 36 38 38 38 35 32 30 30 30 30 31 33 35 36 36 35 34 32 31 31 33 34 33 32 32 32 32 32 31 31 32 31 30 28 27 27 27 25 23 22 22 23 24 25 24 24 24 25 25 25 26 26
42 44 43 43 43 42 43 44 44 45 46 48 47 45 46 49 51 52 52 51 51 50 50 50 51 53 54 53 50 45 40 37 35 35 36 35 34 33 30 29 30 30 30 31 32 34 34 34 32 32 33 33 33 33 32 31 31 32 33 34 34 33 32 31 31 32 31 30 30 30 29 28 26 25 25 26 26 26 27 28 29 30 31 31 32
40 42 42 42 42 42 44 47 48 49 50 49 48 48 49 50 49 50 51 53 53 53 53 52 52 54 54 50 45 41 38 35 34 34 34 34 33 33 31 30 30 31 32 34 34 33 32 33 33 33 34 34 33 31 30 30 31 33 34 34 34 33 32 32 32 32 33 33 34 33 32 32 31 30 28 29 29 30 30 32 33 35 36 36 37
42 42 43 43 45 47 49 51 53 54 53 50 50 49 48 48 48 48 51 53 53 55 55 54 54 53 49 45 41 39 36 34 34 34 35 34 34 34 33 33 33 34 35 36 34 33 34 35 35 35 35 34 33 33 34 35 35 34 34 34 35 35 35 35 34 34 36 37 36 35 33 34 35 34 32 33 33 33 34 34 34 35 35 35 35
48 48 49 51 51 53 55 57 59 58 56 54 54 52 50 50 48 47 49 52 53 54 54 53 52 48 45 42 39 37 35 33 34 35 35 35 34 34 35 35 36 35 34 33 34 35 36 36 36 37 37 37 37 38 40 40 38 37 37 37 37 38 38 38 38 39 40 40 38 37 36 36 37 36 34 34 34 34 33 33 33 33 33 33 33
52 53 54 54 55 58 61 63 62 60 58 56 55 53 52 50 46 46 49 51 51 51 49 48 46 44 43 40 37 35 34 33 34 35 36 36 35 35 36 37 39 38 35 34 35 36 37 36 36 37 39 40 41 42 42 42 41 41 41 42 42 41 40 40 40 40 40 40 39 38 37 36 36 35 35 35 35 34 34 34 34 34 34 34 34
54 55 56 56 59 63 63 63 62 61 59 56 53 50 48 46 44 44 47 48 47 45 44 44 43 42 41 39 36 34 33 33 34 35 36 36 36 36 36 37 38 38 38 38 39 39 39 39 40 41 42 43 44 44 43 43 43 43 44 45 43 42 41 39 39 39 39 39 39 38 38 36 36 35 36 36 36 36 36 37 37 36 36 36 36
59 60 61 62 63 63 61 59 59 58 56 53 51 48 44 42 43 44 44 43 42 41 41 41 41 40 38 36 34 32 32 32 33 34 35 36 36 35 35 35 35 35 36 37 40 41 42 42 43 44 44 44 44 43 44 44 44 45 45 44 42 41 40 39 39 39 39 39 39 39 39 38 37 36 36 37 37 38 39 39 39 39 38 38 38
63 63 65 65 62 61 60 56 54 54 52 49 46 43 40 40 41 41 40 39 39 38 38 38 38 37 35 33 32 32 33 33 33 34 34 34 34 34 34 34 33 33 34 36 38 40 40 40 41 42 43 43 43 43 44 44 44 44 42 41 40 39 39 39 38 38 38 38 39 39 39 39 38 38 38 38 39 39 40 40 40 40 40 40 39
61 62 63 64 61 59 59 58 55 52 47 42 39 38 38 39 39 40 38 37 35 35 35 36 36 35 33 32 33 34 33 33 33 33 33 33 33 32 32 32 32 33 34 36 37 37 37 37 39 40 42 43 43 43 43 42 41 40 39 38 37 38 38 39 39 38 38 37 38 38 38 39 39 39 40 40 41 41 41 42 42 42 42 41 41
56 58 59 60 59 55 56 57 53 47 41 37 36 36 37 38 38 38 36 34 33 33 33 34 34 34 34 34 34 33 33 32 32 32 31 31 30 30 30 30 31 32 33 35 36 36 36 37 38 40 41 41 41 40 39 39 38 37 37 37 37 38 39 39 39 39 39 39 39 38 39 39 39 40 41 42 43 43 43 44 43 43 43 42 42
50 52 52 53 51 49 50 50 47 43 40 38 38 38 38 37 36 35 33 32 32 32 32 33 33 34 36 36 35 34 33 32 32 32 31 30 29 29 29 30 30 31 33 35 37 37 37 37 38 39 39 39 38 38 37 36 35 36 36 36 36 36 36 36 37 37 38 38 39 40 40 41 41 41 42 42 43 44 44 44 44 44 44 44 44
45 47 47 46 45 45 46 46 44 43 41 40 40 39 38 36 34 33 32 32 32 32 33 33 34 35 36 37 37 35 34 33 33 33 32 31 31 30 30 30 30 32 34 36 37 37 37 37 38 39 38 38 37 36 35 34 34 34 33 32 31 31 32 33 34 35 36 36 38 39 40 41 42 43 44 44 44 45 45 45 45 45 45 45 46
42 44 44 44 44 44 45 45 45 44 42 42 41 39 37 35 34 33 32 32 32 33 33 34 35 36 37 37 37 36 35 34 34 34 33 33 32 32 32 32 34 35 36 37 38 39 39 39 39 38 37 36 35 33 32 32 31 30 28 28 29 31 32 33 34 35 36 37 38 38 39 40 41 43 44 45 45 46 46 46 46 46 46 46 46
41 41 42 43 43 43 44 45 46 45 44 43 41 39 36 35 34 33 32 32 32 33 34 35 36 37 37 37 37 37 36 35 35 35 35 35 34 35 35 36 37 38 38 39 40 41 41 39 38 37 35 33 31 30 29 28 27 27 29 31 33 35 36 37 37 37 38 39 39 39 40 40 41 42 42 44 45 45 46 46 45 45 45 45 45
40 40 42 43 44 43 43 44 45 44 43 42 40 38 36 35 35 34 34 34 34 34 35 35 36 37 37 37 37 38 37 36 36 37 37 37 38 38 38 39 39 40 40 41 43 44 41 37 34 32 29 28 27 26 26 26 28 31 33 35 36 37 38 38 38 38 38 39 39 40 40 41 41 41 42 42 43 44 44 44 44 44 44 44 45
42 41 41 42 45 45 44 43 42 42 41 40 40 39 38 38 38 37 37 37 36 36 35 35 36 37 38 38 38 39 39 39 38 38 39 39 40 40 40 40 40 40 41 43 45 43 38 31 27 25 24 24 25 26 28 30 32 34 36 36 37 38 38 38 39 39 39 39 40 40 40 41 41 42 42 42 42 43 43 44 44 44 44 44 44
43 43 42 42 45 47 47 45 44 43 42 42 41 41 42 42 41 41 39 38 37 36 35 34 35 37 39 39 40 40 40 40 39 39 40 40 40 40 39 39 40 41 42 42 41 38 32 27 24 24 24 26 28 30 32 33 35 36 37 37 38 38 39 39 39 39 39 40 40 40 40 40 41 41 42 42 43 43 43 44 44 45 46 46 46
42 42 42 42 43 45 47 48 48 47 47 46 45 45 46 46 44 42 41 39 38 37 35 34 35 37 39 40 40 40 40 39 39 39 40 40 39 38 37 38 40 41 40 36 34 32 29 27 27 29 31 32 32 33 35 36 38 39 39 39 39 40 40 40 40 40 40 41 41 40 40 40 40 41 41 42 43 43 43 44 44 45 46 47 49
41 40 41 41 42 43 46 48 49 49 49 49 49 49 49 49 46 43 41 40 38 37 36 35 36 37 39 40 40 40 39 39 39 40 40 39 38 37 37 39 40 38 35 31 30 30 30 31 32 34 37 38 37 38 39 39 41 42 41 41 41 42 42 41 41 41 42 43 42 41 40 39 40 40 41 42 43 43 44 44 44 45 45 46 47
40 39 39 40 42 43 46 47 49 49 49 49 50 51 51 49 47 43 41 40 39 38 37 36 36 37 39 40 40 40 40 40 40 40 40 39 38 38 39 40 38 35 32 30 30 31 33 35 37 38 41 42 42 42 43 43 44 44 44 44 44 44 44 43 42 43 43 43 42 41 40 40 40 40 41 42 43 43 44 45 45 46 46 46 47
39 39 41 42 43 44 46 48 48 49 50 50 52 52 51 48 45 43 41 41 40 38 37 36 36 37 37 38 40 41 40 40 40 40 39 39 40 40 39 38 36 34 33 33 33 34 37 39 41 42 44 46 45 44 45 46 46 47 47 47 47 47 46 44 43 44 44 44 43 42 42 42 42 42 43 43 42 42 43 43 44 45 46 46 47
41 41 43 44 45 46 48 49 50 51 52 53 53 51 49 47 44 42 41 41 39 38 37 36 36 35 35 36 38 39 39 39 39 39 39 41 42 41 40 38 37 36 36 37 38 39 40 42 44 45 45 47 47 46 46 48 49 49 49 49 50 48 46 44 45 46 46 45 44 44 44 44 45 45 44 44 43 42 42 42 43 44 45 46 47
44 44 45 46 48 49 50 51 52 53 53 53 51 49 47 45 43 41 40 39 38 37 36 35 34 33 33 34 35 37 38 38 38 39 40 41 42 42 41 40 38 37 38 40 41 41 42 44 46 46 46 47 49 49 49 50 51 51 51 51 52 50 45 43 46 49 48 47 47 46 46 47 48 47 46 46 46 45 45 45 45 46 47 47 48
44 44 45 46 48 50 51 51 51 51 50 49 47 45 43 42 40 39 38 37 36 35 35 34 33 33 33 34 35 37 38 38 39 40 41 41 41 42 42 40 38 38 39 41 43 44 44 44 46 47 48 49 51 52 51 50 50 51 50 50 51 50 46 45 49 52 51 51 50 51 52 52 52 51 50 49 50 49 50 50 50 51 52 53 53
44 45 45 45 46 46 46 46 46 46 46 44 43 41 39 38 37 36 35 35 35 34 34 34 34 34 35 35 36 38 39 40 40 41 41 41 42 42 42 42 41 41 41 42 45 47 47 47 47 49 49 48 47 48 48 48 47 45 45 47 48 49 50 52 54 54 54 54 55 56 57 57 57 56 54 53 52 53 53 54 54 56 57 58 58
42 43 43 42 42 41 41 41 41 41 41 40 38 37 36 35 35 34 35 35 35 34 34 35 36 36 36 36 37 38 39 40 40 41 42 43 43 43 42 43 43 43 42 43 45 48 50 50 49 48 47 46 44 44 45 46 46 44 45 46 48 51 53 56 57 57 57 57 58 60 60 61 61 60 58 56 55 55 57 57 58 60 62 63 64
40 40 40 40 40 38 38 38 38 38 37 37 36 36 35 35 35 36 36 36 35 35 36 37 38 38 37 37 37 38 39 40 42 43 43 44 43 42 42 42 43 44 44 44 45 46 48 48 47 45 45 45 45 45 46 47 49 50 51 52 53 55 57 59 60 60 59 59 60 62 64 64 63 62 61 59 57 58 59 60 61 63 65 67 69
41 41 40 40 39 38 38 37 36 36 36 36 37 36 36 36 36 37 37 36 35 36 37 38 39 39 38 38 38 39 40 42 44 45 44 43 43 43 43 43 43 45 46 46 46 45 45 45 45 45 46 47 49 50 52 53 54 54 56 56 57 57 59 60 61 62 63 62 63 65 67 66 65 64 62 61 61 61 62 64 65 66 67 70 73
44 43 42 42 41 41 42 41 39 37 37 38 38 38 38 38 38 38 38 39 39 40 40 41 42 42 42 41 42 43 44 45 46 46 45 45 45 46 46 46 46 47 48 49 49 48 47 47 48 49 50 52 53 54 56 57 58 58 59 59 60 59 59 60 63 64 65 65 66 69 70 68 66 64 63 62 62 62 65 67 68 69 71 74 77
49 47 46 45 45 45 46 45 42 40 40 40 40 40 40 40 40 42 43 43 44 45 45 45 45 45 45 46 47 48 48 48 47 47 47 47 48 49 50 49 49 50 52 53 52 51 50 51 51 52 53 53 54 56 57 59 61 62 64 65 64 63 62 61 63 65 66 68 70 72 71 69 67 65 63 62 62 64 69 72 74 76 77 79 81
52 51 49 48 48 48 49 48 46 43 42 42 42 42 43 44 45 46 47 47 47 47 47 47 47 47 48 49 50 50 49 48 48 48 49 50 51 52 52 51 51 53 55 55 54 53 53 53 54 55 55 56 57 58 60 62 64 67 69 70 69 67 65 64 64 65 67 69 71 71 70 70 69 66 64 65 69 75 78 79 79 81 82 82 83
53 53 51 48 48 48 49 50 48 46 45 45 45 46 48 48 49 49 49 49 48 48 47 47 47 49 50 51 51 51 49 49 50 51 52 53 53 52 52 52 54 56 56 56 56 55 55 56 57 57 58 59 61 64 66 69 71 73 73 72 70 69 68 67 66 67 69 70 70 69 69 69 69 69 70 75 80 83 83 83 83 84 84 83 82
53 51 48 46 46 47 48 49 48 47 47 48 49 50 51 51 50 50 50 49 48 48 48 48 48 50 52 52 53 53 53 54 54 54 53 53 54 54 54 56 57 58 57 56 57 57 57 57 59 61 63 66 69 72 74 76 77 76 75 72 70 69 69 69 70 71 73 73 72 71 71 71 73 75 79 84 85 84 83 83 83 84 84 82 80
52 50 47 46 46 47 49 49 49 49 50 50 51 51 51 50 50 49 49 49 49 50 50 50 51 52 54 55 56 57 57 56 54 53 54 55 56 57 59 60 60 59 59 59 60 61 62 63 66 69 72 75 77 78 78 78 77 76 74 72 70 70 71 72 73 74 75 77 77 76 77 78 80 81 83 84 84 82 82 81 80 82 83 82 80
53 52 51 50 50 50 50 50 50 51 50 50 50 50 50 50 50 50 50 50 51 52 52 53 55 56 57 58 58 58 57 55 55 56 58 60 61 63 64 65 65 65 66 67 68 69 71 72 74 76 78 79 79 79 78 76 75 74 74 73 73 73 74 76 77 78 80 81 81 80 81 83 84 84 83 82 83 83 82 80 80 82 84 84 83
55 55 55 55 55 55 54 54 54 53 52 52 52 52 52 52 52 52 52 53 54 55 56 57 58 59 59 59 59 59 60 61 62 64 65 66 67 68 70 71 72 73 74 75 76 77 78 79 80 80 80 80 79 78 77 76 75 76 77 77 78 79 79 79 81 82 83 82 80 82 86 88 87 86 84 84 85 85 85 83 82 82 84 86 85
Wind_Direction
259 258 258 253 251 251 260 277 282 274 271 280 290 299 307 310 309 310 311 313 315 319 319 315 316 320 319 317 317 312 305 302 302 301 298 296 298 296 286 276 278 287 296 301 302 304 308 310 312 314 316 316 309 301 300 306 313 318 322 323 323 325 328 332 330 317 294 270 263 270 273 268 260 256 255 255 256 257 257 255 249 245 245 247 248
258 257 258 254 251 255 268 280 277 269 271 282 293 303 308 307 307 309 311 313 315 318 317 315 318 320 317 315 315 312 309 306 301 298 295 294 294 290 282 273 275 286 293 298 301 302 305 306 311 316 315 309 300 296 299 307 314 318 321 322 323 326 332 337 335 324 302 276 266 267 271 274 270 263 261 260 259 258 258 257 255 252 250 250 251
258 256 254 251 253 262 274 278 272 269 274 283 296 305 307 306 306 308 310 311 313 316 315 315 318 319 315 314 313 311 311 308 303 296 292 292 291 287 281 276 281 288 290 294 299 301 302 304 309 311 308 301 294 294 301 310 316 319 321 322 323 327 333 338 337 329 313 289 276 273 269 269 269 266 265 265 265 264 262 260 258 256 254 253 254
256 255 252 254 261 270 274 272 269 272 277 285 296 303 304 303 305 307 308 310 313 315 315 316 318 316 314 314 313 311 312 310 305 297 291 289 289 288 284 282 284 287 290 294 299 301 301 304 308 305 300 295 293 297 304 311 315 318 319 321 325 329 333 337 335 327 315 298 286 281 276 272 270 270 269 269 270 269 266 263 261 260 258 257 257
250 250 254 261 267 271 269 264 265 270 277 287 295 299 301 302 304 306 307 310 312 314 315 315 315 312 311 313 312 311 313 312 305 296 291 287 285 286 285 284 286 288 290 292 296 300 300 302 303 300 297 296 297 301 305 310 315 317 319 321 326 330 332 333 329 321 311 300 293 289 283 277 275 274 274 275 276 276 271 265 263 262 261 259 258
249 250 256 265 269 270 268 263 264 270 277 285 291 296 300 302 303 305 308 311 312 314 314 314 312 307 307 311 309 311 315 311 301 294 290 285 282 282 282 285 289 290 289 289 294 297 297 297 297 296 296 296 298 301 305 310 314 316 316 316 320 324 327 326 321 313 305 298 294 291 287 281 277 275 274 275 277 278 277 272 268 266 264 263 262
250 254 259 265 267 267 267 269 273 277 281 285 289 295 300 300 303 307 310 312 313 314 315 313 309 303 304 308 308 311 314 309 301 293 289 284 280 277 277 280 284 286 287 290 293 295 297 296 295 295 296 298 300 302 305 308 311 311 307 309 311 312 316 320 317 307 300 294 290 287 285 283 281 278 275 274 274 274 276 275 273 272 270 269 268
251 257 258 257 258 261 265 272 281 283 282 285 290 296 299 301 306 309 310 311 312 314 314 310 305 301 302 306 309 312 313 309 303 297 291 287 283 278 276 276 279 282 285 289 293 295 297 296 294 295 297 298 299 300 302 304 306 304 297 296 300 302 306 314 315 307 302 296 289 283 279 280 280 279 277 275 274 273 273 274 276 277 276 275 273
251 256 255 252 251 254 259 265 275 281 283 287 293 296 299 304 308 310 310 310 311 314 311 305 302 301 303 308 311 312 312 309 303 297 292 289 285 282 280 278 278 279 281 288 295 295 293 291 292 295 296 295 294 296 298 300 302 301 295 289 289 294 301 307 307 305 305 304 298 288 281 280 282 282 281 279 277 276 275 275 276 278 279 277 275
251 254 253 254 253 255 263 267 270 276 283 287 290 293 299 305 309 310 309 308 309 310 305 300 299 299 303 309 312 312 310 306 301 295 290 286 284 284 285 285 282 279 281 288 292 291 289 289 291 295 295 292 292 294 295 299 301 301 295 288 286 290 296 298 298 298 301 305 305 298 290 285 285 285 284 283 282 280 279 278 277 277 277 275 273
253 252 251 254 257 259 264 266 265 270 277 280 282 289 298 304 307 308 307 304 305 306 299 294 295 296 300 307 310 310 308 304 300 295 287 282 280 283 288 291 288 284 284 288 290 289 289 291 292 294 294 292 292 292 295 299 300 297 293 290 289 291 292 292 292 292 295 300 302 301 297 290 287 286 285 284 283 283 282 280 278 276 274 270 267
256 255 252 254 258 261 264 267 268 270 273 274 278 288 296 301 303 304 302 299 299 300 296 291 290 293 297 303 309 309 306 302 297 290 282 277 277 282 289 291 290 286 284 286 288 288 289 293 294 291 290 292 292 292 295 298 296 293 290 291 293 293 291 290 290 290 292 295 296 296 296 291 286 284 284 283 282 280 279 277 275 272 269 265 262
256 254 251 252 256 261 265 269 270 271 273 275 282 291 297 300 301 302 301 298 295 294 292 288 286 290 294 301 307 307 303 299 293 284 277 274 277 284 290 291 290 288 285 285 286 285 287 292 291 286 285 288 289 291 295 296 294 291 288 289 292 293 289 287 287 287 289 291 293 295 295 291 286 283 282 281 280 278 275 274 272 270 268 265 262
250 248 248 249 252 257 263 269 272 277 280 282 287 294 296 297 300 302 301 298 294 291 289 284 282 287 293 300 305 304 301 296 290 281 276 276 280 286 290 291 291 290 288 287 286 286 288 291 290 287 286 285 285 289 294 294 292 290 289 289 292 293 290 289 289 288 289 292 296 297 296 292 286 281 279 279 280 279 275 274 274 273 272 270 270
247 246 247 248 252 258 266 272 276 280 283 287 291 292 292 294 299 301 298 295 292 290 287 282 281 286 293 300 303 301 297 292 286 279 278 281 285 287 290 291 291 290 291 291 291 290 289 289 289 287 285 283 284 288 292 291 289 290 291 292 295 296 294 294 294 292 291 293 296 298 297 296 290 282 278 278 280 280 277 276 276 276 275 273 275
246 247 250 254 259 266 271 275 277 280 284 289 291 290 291 295 298 299 295 291 289 288 286 282 282 288 295 299 299 296 293 288 283 278 279 283 286 287 288 288 288 287 287 289 292 292 287 285 284 282 282 283 287 289 288 287 288 291 293 295 297 296 293 292 291 291 292 293 295 297 297 297 296 290 285 283 282 281 280 281 283 284 283 281 282
247 250 254 259 264 268 271 274 278 284 287 289 290 289 292 295 298 298 293 289 288 287 285 284 286 292 295 296 294 292 290 285 280 277 278 281 284 284 283 281 282 284 285 286 290 290 284 280 279 278 280 283 286 287 285 284 288 291 294 295 295 294 291 289 287 288 290 293 295 294 293 293 295 295 294 291 289 287 285 285 287 288 288 288 288
252 255 257 262 266 269 272 276 281 286 286 288 291 292 293 296 298 297 293 290 288 287 287 288 291 294 293 292 290 289 287 282 278 276 277 280 282 283 282 278 277 280 284 287 288 286 282 279 278 277 278 280 282 283 284 285 287 290 292 292 291 290 288 287 286 284 286 290 291 289 285 284 287 290 291 290 289 288 286 286 287 288 289 289 289
254 259 263 267 269 271 275 279 284 285 284 286 290 291 293 295 296 294 292 290 289 289 290 290 291 292 290 289 287 285 284 280 277 276 277 279 280 279 278 277 276 279 283 286 285 283 282 282 281 277 276 277 280 282 283 284 286 288 291 292 291 289 286 284 283 281 283 284 285 286 283 279 280 283 284 284 284 284 285 286 287 288 289 289 289
257 262 266 269 270 273 278 281 283 283 284 286 289 291 291 292 293 292 290 289 289 290 289 289 289 289 287 285 284 282 281 278 277 277 278 279 279 277 276 275 275 276 278 277 277 278 280 282 281 279 278 280 282 282 282 283 284 286 290 293 293 291 288 285 283 282 282 282 282 283 283 281 279 280 281 282 283 284 286 287 287 288 288 288 288
260 263 267 269 272 276 280 281 281 282 283 286 289 292 291 289 291 290 287 287 288 288 288 288 287 286 285 283 282 279 278 278 277 278 278 279 279 279 278 277 275 275 274 272 272 274 276 278 279 279 280 282 284 283 283 283 284 287 290 293 293 292 290 288 286 285 284 283 282 281 282 282 281 280 280 281 282 283 285 286 287 288 288 288 287
261 264 267 270 274 277 278 281 282 282 284 287 289 290 288 287 288 286 283 285 286 286 287 286 285 285 283 281 279 277 276 278 278 278 279 279 279 278 278 277 276 275 274 272 271 273 275 277 279 280 281 283 284 285 285 286 288 290 292 293 293 293 292 290 289 287 286 284 284 282 282 281 281 281 280 280 280 281 283 284 286 287 287 287 287
262 265 267 270 273 275 276 278 279 282 286 288 287 285 284 285 283 281 281 283 284 285 286 285 284 283 280 278 277 276 276 277 278 278 279 279 279 278 278 277 276 275 274 273 273 274 276 278 280 282 283 284 285 287 288 290 291 292 293 293 293 293 292 292 291 289 288 286 285 283 282 281 280 280 280 279 279 280 281 282 284 284 285 285 285
264 266 267 268 270 272 274 274 276 281 285 284 282 282 282 281 279 279 280 281 283 286 287 286 283 279 277 276 277 278 278 278 278 278 279 279 278 277 277 277 276 275 275 276 277 278 280 281 283 284 285 286 287 289 290 292 292 292 293 293 293 292 291 291 290 289 288 287 286 285 283 281 279 279 278 278 279 279 280 281 282 282 282 282 283
265 265 265 266 268 269 270 273 277 279 279 279 280 279 279 279 278 277 278 280 284 288 288 286 282 278 276 276 277 278 278 279 279 278 278 278 278 279 278 278 279 279 280 281 282 284 285 285 286 286 287 288 289 290 291 291 292 292 293 292 292 292 291 290 290 290 289 288 287 285 284 282 281 279 279 278 279 279 280 280 281 281 280 280 281
266 265 264 265 265 264 265 269 272 272 273 276 278 277 276 276 275 275 277 282 287 288 288 285 281 279 277 276 274 273 274 276 278 278 277 278 280 280 280 281 282 283 285 286 286 287 288 288 289 288 289 289 289 290 290 291 291 292 292 292 293 294 295 295 295 294 293 292 289 288 286 284 283 282 281 280 280 280 280 280 280 280 280 279 280
267 266 264 263 261 258 257 260 264 267 270 274 276 275 273 271 272 275 280 284 287 288 287 284 280 278 276 273 271 269 269 272 276 277 278 280 281 282 282 282 284 286 287 287 287 288 289 290 290 290 289 288 288 288 288 289 290 290 291 293 295 297 298 299 300 300 298 297 295 293 290 288 286 285 283 282 281 280 280 280 280 280 280 280 280
267 265 263 261 259 256 254 256 260 264 269 273 274 270 268 270 274 278 282 285 287 287 286 283 279 277 274 270 268 267 268 271 274 276 278 280 281 282 283 284 287 288 288 288 288 288 290 290 289 288 287 286 286 285 286 286 286 287 290 292 295 297 298 299 300 300 300 299 298 296 294 292 290 288 286 284 282 281 281 280 280 280 280 280 279
266 264 260 259 258 256 255 256 259 263 268 270 268 265 267 272 277 279 282 285 286 286 285 282 279 276 273 269 266 266 267 270 273 276 277 279 281 283 284 285 288 288 287 287 288 289 290 289 286 285 284 283 283 283 282 283 284 286 290 292 294 296 297 297 297 297 297 297 296 296 295 294 292 290 288 286 284 282 281 281 280 280 280 280 280
265 262 258 256 255 255 254 256 260 263 266 265 262 262 267 273 278 280 283 284 285 286 285 282 279 275 272 269 266 266 267 269 272 274 276 278 281 283 284 286 288 287 286 286 288 289 289 286 284 283 283 283 283 282 282 283 286 289 291 293 294 295 297 297 297 296 295 295 294 293 293 292 292 291 289 288 286 284 282 281 280 279 279 279 279
262 261 258 255 253 252 254 256 260 262 260 259 260 263 268 273 278 281 283 284 284 284 284 282 279 275 272 269 267 266 267 269 271 273 275 277 280 283 285 286 286 285 285 287 289 288 285 281 279 282 284 285 285 284 284 285 288 290 291 291 293 295 296 297 297 297 296 295 293 292 292 291 291 290 290 289 288 286 283 281 279 278 277 277 276
260 260 259 257 254 253 253 255 258 259 257 258 262 266 270 275 279 282 283 283 283 283 282 280 279 276 273 271 269 268 269 270 272 275 277 279 281 282 283 284 284 285 287 287 286 282 278 273 274 280 284 286 286 285 284 286 289 291 292 292 293 294 295 296 296 296 296 295 294 293 292 291 290 289 289 289 289 288 286 284 282 279 277 276 275
260 260 260 259 257 255 254 254 255 255 256 258 263 268 273 278 281 282 282 282 281 280 279 279 278 276 274 272 270 270 270 271 274 278 280 280 281 281 281 282 285 286 286 284 280 276 272 269 274 282 285 287 288 287 287 287 289 292 292 292 292 293 294 294 294 294 295 295 294 294 293 292 291 289 288 288 287 287 287 286 285 284 282 280 279
261 260 260 260 258 257 255 254 254 254 256 258 263 270 276 279 281 281 281 280 279 278 278 278 277 276 273 271 271 271 271 272 276 279 280 279 278 279 281 284 285 284 280 277 275 272 269 270 276 283 286 287 289 289 289 288 289 291 291 291 292 293 294 294 292 293 295 295 294 294 294 294 292 289 288 288 287 288 288 287 287 287 287 286 285
258 257 258 258 258 255 253 253 254 255 257 260 266 272 277 279 280 280 279 278 277 277 277 277 276 274 272 270 270 270 270 272 276 278 277 276 277 279 284 285 282 278 276 275 274 272 271 273 278 283 286 286 286 287 288 288 288 289 290 290 290 291 293 292 291 294 295 295 295 295 296 296 295 291 290 289 288 288 288 288 288 288 288 288 287
254 254 255 255 255 254 253 253 254 256 259 264 269 274 276 278 278 278 277 277 277 276 275 275 274 272 271 270 269 269 270 272 274 275 274 275 278 282 284 282 277 273 273 274 274 274 274 276 279 281 283 283 283 284 285 286 287 287 288 289 289 290 292 290 290 294 296 296 297 298 299 299 298 294 292 292 291 289 290 290 290 289 289 288 287
253 253 252 252 253 253 254 255 256 259 262 267 270 273 274 275 275 276 276 276 276 274 274 273 271 270 269 268 268 268 270 271 272 273 274 276 280 283 284 282 276 272 271 272 273 274 275 277 278 278 280 282 283 283 285 286 287 287 287 288 289 290 290 289 289 292 295 297 299 302 303 303 301 297 294 293 293 293 293 293 293 293 292 291 291
253 252 251 251 251 252 254 257 259 261 264 266 268 269 271 272 272 273 273 273 273 273 273 272 270 269 268 267 267 268 269 269 270 272 275 278 282 284 284 283 279 276 275 275 275 275 276 277 279 280 281 283 285 286 286 287 288 288 288 289 289 289 287 287 290 293 295 298 302 305 306 305 304 301 296 294 294 295 295 296 296 297 297 297 296
253 252 251 251 251 252 254 257 259 261 263 264 265 266 267 267 268 269 270 271 273 273 273 272 270 268 267 267 268 268 269 270 272 275 278 281 283 284 284 283 280 280 280 280 280 280 280 281 282 283 283 284 285 286 286 286 288 289 289 289 289 287 284 286 292 296 298 301 305 307 307 305 304 302 299 296 295 296 297 299 299 300 301 301 301
252 250 250 249 250 251 253 256 258 259 261 262 263 264 265 266 266 268 269 272 274 275 275 272 269 268 268 269 270 271 272 274 275 277 279 281 283 284 284 284 284 284 284 284 285 285 285 284 284 284 285 284 284 285 287 288 288 289 291 291 289 287 286 289 294 298 300 303 306 307 306 304 303 302 301 299 297 297 298 299 300 300 301 302 303
250 249 249 249 250 251 254 256 257 258 259 260 262 264 267 268 269 270 272 275 277 278 276 273 272 273 275 276 276 276 276 276 276 277 279 282 284 285 286 287 288 288 288 288 288 287 287 286 286 286 286 285 285 285 287 290 290 291 294 295 294 294 294 296 298 300 301 302 304 305 304 303 301 301 301 300 299 298 298 298 299 299 300 302 303
248 248 248 249 251 252 254 255 256 258 259 262 264 266 268 269 271 273 276 278 279 277 275 275 276 278 279 279 278 278 277 277 277 279 281 284 286 287 288 288 289 290 291 290 289 288 288 287 287 287 286 285 287 287 290 294 297 299 300 301 301 301 300 300 299 299 299 299 300 300 301 300 300 300 301 300 300 299 298 298 298 297 298 299 300
247 248 248 250 251 252 254 255 256 258 261 262 264 265 266 267 270 273 275 276 277 277 276 276 278 279 278 277 277 278 278 279 280 282 285 287 289 291 291 290 290 291 292 292 291 290 289 290 291 292 292 294 296 297 299 301 302 301 301 301 302 301 299 297 295 295 295 296 296 298 299 298 298 298 299 300 300 299 298 297 297 296 296 296 297
248 249 250 250 251 253 256 258 260 262 263 263 264 265 265 266 268 270 272 273 275 277 278 279 280 280 277 276 277 280 282 283 284 286 288 290 291 293 293 292 291 292 293 295 296 295 295 297 298 299 299 300 300 299 300 301 301 300 299 299 299 298 296 293 291 291 291 292 293 296 297 296 296 296 297 298 298 297 297 296 296 295 293 293 294
250 251 252 252 253 255 258 261 262 264 264 265 266 266 266 266 268 270 272 273 275 277 279 281 281 280 279 279 281 283 285 286 287 287 288 289 290 291 292 292 293 294 296 297 298 298 298 300 300 300 299 298 296 294 295 296 297 297 298 298 298 296 293 290 288 287 287 289 292 294 295 295 294 295 295 295 294 294 294 294 293 292 292 292 293
251 251 252 253 254 257 260 262 263 263 264 264 264 264 265 268 270 272 273 275 277 278 279 280 280 280 281 283 284 285 286 286 286 286 287 288 289 290 291 292 293 294 296 297 298 298 299 299 298 297 297 295 293 293 293 293 294 295 296 297 296 295 292 289 287 284 284 287 290 292 292 293 292 292 291 290 292 294 294 293 292 291 291 292 292
250 251 253 254 255 257 259 261 262 262 262 262 263 264 267 270 272 273 275 277 278 278 279 280 280 281 282 284 284 285 284 284 284 285 286 287 288 290 290 291 293 295 296 296 296 297 298 297 296 295 295 294 293 293 293 293 293 293 294 295 294 292 290 288 286 284 284 286 288 288 288 288 288 288 287 288 292 294 294 294 293 292 292 292 293
252 254 254 254 254 255 257 258 260 261 262 264 266 268 270 272 274 275 277 277 277 278 279 280 279 280 281 282 282 282 282 283 284 285 286 287 289 290 291 293 294 296 296 295 295 295 295 294 293 293 292 292 292 292 292 292 292 292 292 292 291 289 287 285 284 284 285 286 286 287 286 286 286 287 288 290 293 293 293 294 294 295 296 296 296
254 256 256 255 254 255 257 259 262 264 265 267 269 271 272 273 274 275 275 275 275 276 278 278 278 278 278 279 280 281 284 285 286 287 287 288 290 291 293 294 295 294 293 292 291 291 290 289 289 289 289 289 290 290 291 291 291 291 291 290 288 286 284 283 283 283 284 285 286 287 288 288 289 290 291 292 294 294 294 294 295 296 297 297 297
255 257 258 258 257 258 260 262 264 266 267 269 270 271 272 272 273 273 273 273 273 274 275 276 276 276 277 279 282 284 286 287 287 288 289 290 291 292 293 294 293 292 291 290 289 289 288 288 288 288 289 289 289 289 289 289 288 287 286 286 284 283 282 282 282 283 284 285 287 288 289 290 291 292 292 292 293 294 294 293 292 292 293 295 296
258 259 261 261 262 263 264 265 266 268 268 269 270 271 272 272 272 273 273 272 273 273 274 274 275 276 278 281 284 285 286 287 287 288 290 291 291 292 292 291 291 290 290 290 290 290 290 290 290 289 289 288 287 287 286 285 284 283 282 282 281 281 281 282 282 282 283 285 286 287 288 290 291 291 292 293 294 294 294 293 292 292 293 295 296
Height
10782 10781 10781 10782 10782 10782 10781 10781 10780 10779 10778 10778 10777 10775 10774 10774 10773 10773 10772 10771 10769 10768 10768 10764 10763 10763 10763 10761 10759 10756 10754 10754 10754 10753 10752 10752 10752 10752 10751 10749 10749 10748 10748 10747 10746 10746 10745 10744 10744 10743 10743 10742 10742 10741 10740 10740 10739 10738 10736 10735 10734 10733 10731 10729 10727 10726 10726 10726 10727 10728 10728 10728 10729 10729 10730 10730 10731 10731 10732 10732 10733 10733 10734 10735 10736
10778 10778 10778 10779 10779 10779 10778 10778 10777 10776 10775 10774 10774 10772 10771 10771 10770 10770 10769 10768 10767 10766 10763 10761 10760 10760 10759 10759 10756 10754 10753 10752 10752 10752 10751 10750 10750 10750 10748 10747 10747 10747 10746 10745 10744 10744 10743 10742 10742 10742 10741 10741 10740 10739 10739 10738 10737 10736 10734 10733 10732 10731 10730 10728 10727 10726 10725 10726 10726 10727 10727 10727 10728 10728 10728 10729 10729 10730 10730 10731 10731 10732 10733 10733 10734
10775 10775 10775 10774 10774 10775 10774 10774 10774 10773 10772 10771 10770 10769 10768 10768 10768 10767 10766 10766 10765 10762 10759 10758 10758 10757 10756 10756 10754 10752 10751 10750 10750 10749 10749 10748 10748 10747 10746 10746 10745 10745 10744 10743 10742 10741 10741 10740 10740 10740 10740 10739 10738 10737 10737 10736 10735 10734 10733 10732 10731 10730 10729 10727 10726 10725 10725 10725 10726 10726 10726 10726 10727 10727 10727 10728 10728 10729 10729 10729 10730 10731 10731 10732 10732
10771 10771 10770 10770 10770 10770 10770 10770 10770 10769 10768 10767 10767 10766 10765 10765 10765 10765 10764 10763 10762 10759 10757 10755 10755 10755 10754 10753 10751 10749 10748 10747 10747 10747 10747 10746 10746 10745 10744 10744 10743 10742 10741 10740 10740 10739 10738 10738 10739 10739 10738 10738 10736 10736 10735 10734 10734 10732 10731 10730 10729 10729 10728 10727 10726 10725 10725 10725 10725 10725 10725 10725 10726 10726 10726 10727 10727 10728 10728 10728 10729 10729 10730 10730 10731
10768 10767 10766 10766 10766 10766 10766 10765 10765 10765 10764 10763 10763 10762 10762 10762 10762 10762 10761 10760 10758 10756 10755 10754 10752 10752 10751 10750 10748 10747 10747 10746 10745 10745 10745 10744 10743 10742 10742 10741 10740 10740 10740 10739 10738 10737 10737 10737 10737 10737 10736 10736 10735 10734 10733 10732 10732 10731 10730 10729 10728 10727 10727 10726 10725 10725 10724 10724 10724 10724 10724 10724 10724 10725 10725 10725 10726 10726 10727 10727 10727 10728 10728 10728 10729
10764 10763 10763 10763 10763 10762 10762 10761 10761 10761 10760 10759 10759 10759 10759 10760 10759 10759 10757 10756 10754 10753 10753 10751 10749 10748 10748 10747 10745 10745 10745 10745 10744 10743 10743 10742 10741 10740 10739 10739 10739 10738 10738 10737 10736 10736 10735 10735 10735 10735 10734 10733 10733 10732 10731 10731 10730 10729 10728 10728 10727 10726 10726 10725 10724 10724 10723 10723 10723 10723 10723 10722 10723 10723 10723 10724 10724 10725 10725 10725 10725 10726 10726 10726 10727
10760 10759 10760 10759 10759 10759 10758 10757 10756 10755 10755 10755 10755 10756 10756 10756 10755 10754 10752 10751 10750 10750 10750 10747 10746 10745 10744 10744 10743 10743 10743 10743 10742 10742 10741 10740 10739 10738 10737 10737 10737 10737 10736 10736 10735 10734 10733 10733 10733 10732 10731 10731 10730 10730 10730 10729 10728 10728 10727 10726 10725 10725 10724 10724 10723 10723 10722 10722 10722 10722 10722 10722 10721 10722 10722 10722 10722 10723 10723 10723 10724 10724 10724 10724 10724
10757 10756 10757 10756 10756 10755 10754 10753 10751 10750 10749 10750 10751 10752 10753 10753 10752 10750 10747 10746 10747 10748 10746 10744 10742 10742 10741 10741 10740 10740 10740 10739 10739 10739 10738 10737 10737 10737 10736 10735 10735 10735 10735 10734 10733 10732 10731 10731 10730 10730 10729 10729 10728 10728 10728 10727 10727 10726 10725 10724 10724 10723 10723 10722 10722 10721 10721 10721 10721 10720 10720 10720 10720 10720 10720 10720 10721 10721 10721 10721 10721 10721 10721 10722 10722
10755 10754 10754 10753 10753 10752 10752 10750 10748 10747 10745 10745 10747 10748 10750 10750 10748 10746 10742 10740 10743 10745 10744 10741 10740 10739 10739 10738 10737 10737 10737 10737 10737 10736 10735 10735 10734 10735 10734 10734 10733 10733 10732 10731 10731 10730 10729 10729 10728 10727 10727 10726 10726 10726 10726 10725 10725 10724 10724 10723 10722 10721 10721 10721 10720 10719 10719 10719 10719 10719 10718 10718 10718 10718 10718 10719 10719 10719 10719 10719 10719 10719 10719 10719 10719
10752 10751 10751 10750 10750 10750 10749 10749 10747 10745 10744 10743 10743 10745 10746 10746 10746 10743 10738 10735 10737 10741 10741 10739 10737 10736 10736 10735 10734 10735 10736 10735 10735 10734 10732 10732 10732 10732 10732 10731 10731 10730 10729 10729 10729 10728 10727 10727 10726 10725 10725 10724 10723 10723 10723 10722 10722 10722 10721 10721 10720 10720 10719 10719 10718 10717 10717 10717 10717 10716 10716 10716 10716 10716 10716 10716 10716 10717 10717 10717 10717 10717 10716 10716 10716
10749 10748 10747 10746 10746 10747 10747 10746 10745 10744 10743 10742 10742 10742 10743 10744 10745 10742 10736 10733 10734 10736 10737 10736 10736 10734 10734 10734 10733 10732 10733 10732 10731 10731 10730 10730 10730 10730 10729 10728 10728 10727 10727 10726 10726 10726 10725 10725 10724 10723 10723 10722 10721 10721 10720 10720 10719 10719 10719 10719 10719 10718 10717 10716 10716 10715 10715 10715 10714 10714 10714 10714 10714 10714 10714 10714 10714 10714 10714 10714 10714 10714 10714 10714 10713
10745 10744 10743 10743 10743 10743 10743 10743 10742 10741 10740 10740 10739 10739 10740 10741 10743 10742 10737 10733 10733 10732 10733 10733 10733 10731 10731 10733 10732 10730 10729 10729 10728 10728 10727 10727 10727 10727 10727 10726 10725 10725 10724 10724 10724 10723 10722 10722 10722 10722 10721 10721 10720 10719 10719 10718 10717 10716 10716 10716 10716 10715 10714 10714 10713 10713 10713 10712 10712 10712 10711 10711 10711 10711 10711 10711 10711 10711 10711 10711 10711 10711 10711 10711 10711
10741 10740 10739 10739 10739 10740 10739 10739 10738 10738 10737 10736 10736 10736 10737 10737 10738 10738 10735 10733 10732 10730 10728 10729 10729 10728 10727 10728 10729 10728 10727 10727 10726 10725 10724 10724 10724 10724 10723 10723 10723 10722 10722 10722 10722 10721 10720 10720 10720 10720 10719 10719 10718 10717 10717 10716 10715 10715 10714 10714 10714 10713 10712 10712 10711 10711 10710 10710 10709 10709 10708 10708 10708 10708 10708 10708 10708 10708 10708 10708 10708 10708 10708 10708 10708
10737 10735 10735 10735 10735 10736 10735 10735 10735 10734 10733 10733 10733 10733 10733 10733 10733 10732 10731 10730 10730 10728 10726 10726 10726 10725 10724 10723 10724 10724 10724 10724 10723 10721 10720 10720 10720 10720 10720 10719 10719 10720 10720 10720 10719 10719 10718 10717 10717 10717 10717 10717 10716 10715 10714 10714 10713 10713 10713 10712 10712 10712 10711 10709 10709 10708 10707 10707 10707 10706 10706 10705 10705 10705 10705 10705 10705 10705 10705 10705 10705 10705 10705 10705 10705
10733 10731 10731 10731 10732 10732 10732 10731 10731 10731 10730 10729 10729 10729 10730 10730 10729 10727 10725 10725 10725 10725 10724 10723 10722 10722 10720 10719 10719 10719 10719 10719 10719 10718 10717 10716 10716 10716 10717 10716 10716 10717 10717 10718 10717 10716 10715 10715 10715 10714 10714 10714 10714 10713 10712 10711 10710 10710 10710 10709 10709 10709 10708 10706 10705 10705 10704 10704 10704 10703 10703 10703 10702 10702 10702 10702 10702 10702 10702 10702 10702 10702 10701 10701 10701
10729 10728 10727 10727 10728 10728 10727 10726 10726 10726 10726 10725 10725 10726 10726 10726 10725 10723 10720 10720 10721 10721 10720 10719 10718 10718 10717 10716 10715 10714 10714 10714 10715 10715 10714 10713 10713 10713 10713 10714 10714 10714 10715 10715 10715 10714 10712 10712 10712 10712 10711 10711 10711 10710 10710 10709 10708 10707 10707 10707 10706 10706 10705 10704 10703 10701 10701 10701 10700 10700 10700 10699 10699 10699 10699 10699 10699 10698 10698 10698 10698 10697 10697 10697 10697
10725 10724 10724 10724 10724 10724 10722 10721 10721 10722 10722 10722 10722 10722 10723 10722 10722 10719 10715 10715 10716 10716 10716 10715 10714 10714 10713 10712 10711 10710 10710 10710 10710 10711 10711 10711 10710 10710 10711 10711 10711 10712 10712 10712 10712 10711 10710 10710 10710 10709 10708 10708 10708 10707 10706 10706 10705 10705 10704 10704 10704 10703 10703 10702 10701 10699 10698 10697 10697 10696 10696 10695 10695 10695 10695 10695 10694 10694 10694 10694 10693 10693 10693 10692 10692
10721 10721 10720 10721 10720 10719 10717 10716 10717 10718 10719 10719 10720 10720 10720 10719 10718 10716 10712 10710 10710 10710 10710 10710 10710 10709 10708 10708 10707 10706 10706 10706 10707 10708 10708 10708 10708 10708 10708 10709 10709 10709 10709 10708 10708 10708 10708 10707 10707 10706 10706 10705 10705 10704 10703 10703 10702 10702 10702 10701 10701 10701 10700 10700 10700 10698 10695 10694 10694 10693 10692 10692 10691 10691 10691 10691 10690 10690 10690 10689 10689 10689 10688 10688 10687
10717 10717 10717 10717 10716 10715 10713 10713 10713 10714 10715 10717 10717 10717 10717 10716 10715 10714 10709 10706 10706 10706 10706 10705 10704 10704 10703 10703 10703 10703 10703 10703 10704 10704 10705 10705 10706 10706 10706 10706 10706 10706 10706 10705 10705 10704 10704 10704 10704 10703 10702 10702 10701 10700 10699 10699 10699 10699 10698 10698 10697 10697 10696 10695 10695 10695 10693 10691 10691 10690 10689 10688 10688 10687 10687 10687 10686 10686 10686 10685 10685 10684 10684 10683 10683
10714 10714 10713 10713 10712 10710 10708 10709 10709 10710 10712 10714 10714 10714 10713 10712 10712 10710 10706 10703 10703 10702 10702 10701 10700 10700 10699 10699 10699 10700 10700 10700 10700 10701 10701 10702 10702 10703 10703 10703 10703 10703 10703 10702 10701 10700 10700 10701 10701 10700 10699 10698 10698 10696 10696 10696 10695 10695 10694 10694 10693 10692 10691 10690 10690 10689 10688 10687 10686 10686 10685 10685 10684 10684 10683 10682 10682 10682 10681 10681 10680 10680 10679 10679 10678
10711 10710 10710 10709 10708 10705 10704 10704 10704 10706 10709 10711 10711 10710 10709 10708 10707 10707 10704 10701 10700 10699 10699 10698 10697 10696 10696 10695 10696 10696 10696 10696 10697 10697 10697 10698 10698 10699 10699 10699 10699 10699 10699 10698 10697 10696 10696 10697 10697 10695 10695 10694 10693 10693 10692 10692 10691 10691 10690 10689 10688 10687 10686 10685 10684 10684 10683 10682 10682 10681 10681 10680 10680 10679 10678 10678 10677 10677 10676 10676 10675 10675 10674 10674 10673
10706 10706 10706 10706 10704 10701 10700 10699 10697 10701 10706 10708 10707 10707 10706 10705 10704 10703 10702 10700 10697 10696 10695 10694 10694 10693 10692 10692 10692 10692 10693 10693 10693 10693 10693 10694 10694 10695 10695 10695 10695 10695 10694 10694 10692 10692 10692 10693 10692 10691 10691 10690 10689 10689 10688 10687 10686 10686 10685 10684 10683 10682 10681 10680 10679 10678 10678 10677 10676 10676 10676 10675 10675 10674 10673 10673 10672 10671 10671 10670 10670 10669 10669 10668 10668
10702 10703 10702 10701 10700 10697 10696 10695 10692 10696 10702 10703 10703 10703 10702 10702 10701 10699 10699 10697 10695 10694 10692 10691 10691 10690 10690 10689 10689 10689 10690 10690 10689 10689 10689 10690 10690 10690 10690 10690 10691 10691 10690 10689 10688 10687 10688 10689 10688 10687 10687 10686 10685 10684 10683 10683 10682 10681 10680 10679 10678 10677 10676 10675 10674 10673 10672 10672 10671 10671 10670 10670 10669 10669 10668 10667 10667 10666 10665 10665 10664 10664 10663 10663 10662
10698 10699 10697 10697 10697 10693 10691 10691 10690 10693 10698 10699 10699 10699 10698 10698 10697 10696 10695 10694 10693 10691 10690 10689 10688 10687 10687 10686 10686 10686 10686 10686 10686 10686 10686 10686 10686 10686 10686 10686 10686 10686 10686 10685 10684 10684 10685 10685 10685 10684 10682 10682 10681 10680 10679 10678 10677 10675 10674 10673 10672 10671 10670 10669 10668 10668 10667 10666 10666 10665 10665 10664 10664 10663 10663 10662 10661 10661 10660 10660 10659 10658 10658 10657 10657
10692 10693 10692 10691 10692 10690 10687 10687 10689 10691 10694 10695 10695 10695 10695 10694 10694 10692 10691 10691 10690 10688 10687 10686 10685 10684 10684 10683 10682 10682 10682 10682 10682 10681 10682 10682 10682 10683 10682 10682 10682 10682 10681 10680 10679 10680 10681 10681 10681 10680 10679 10678 10677 10676 10674 10673 10672 10670 10669 10668 10667 10666 10665 10664 10663 10662 10662 10661 10661 10660 10659 10659 10658 10658 10657 10656 10656 10655 10655 10654 10653 10653 10652 10652 10651
10685 10686 10686 10686 10686 10686 10684 10684 10687 10688 10690 10691 10691 10691 10691 10691 10690 10689 10688 10688 10687 10685 10684 10683 10682 10681 10680 10679 10679 10679 10679 10678 10678 10677 10678 10679 10679 10679 10679 10679 10679 10678 10677 10675 10674 10675 10676 10676 10676 10675 10674 10673 10672 10671 10670 10668 10667 10666 10665 10663 10662 10661 10660 10659 10658 10657 10656 10655 10655 10654 10654 10653 10653 10652 10651 10651 10650 10649 10649 10648 10648 10647 10646 10646 10645
10678 10678 10680 10680 10681 10682 10682 10682 10683 10685 10686 10687 10687 10687 10687 10687 10686 10685 10684 10684 10683 10682 10681 10680 10679 10678 10677 10676 10675 10675 10676 10675 10674 10674 10674 10675 10675 10676 10676 10676 10676 10675 10673 10672 10671 10671 10672 10672 10670 10669 10669 10668 10668 10667 10665 10664 10663 10661 10660 10659 10658 10656 10655 10654 10653 10652 10651 10650 10649 10649 10648 10647 10647 10646 10646 10645 10644 10644 10643 10642 10642 10641 10640 10640 10639
10673 10673 10674 10675 10676 10678 10679 10679 10680 10682 10683 10683 10683 10683 10682 10682 10681 10681 10680 10679 10679 10678 10677 10676 10675 10674 10674 10673 10671 10671 10671 10672 10671 10670 10671 10671 10672 10672 10673 10673 10672 10671 10670 10668 10667 10667 10669 10668 10666 10665 10664 10664 10663 10662 10661 10660 10659 10658 10657 10656 10654 10653 10652 10650 10649 10648 10647 10645 10644 10643 10643 10642 10641 10641 10640 10639 10638 10637 10637 10636 10635 10634 10634 10633 10632
10668 10669 10670 10671 10673 10674 10675 10676 10677 10678 10678 10678 10679 10678 10678 10678 10677 10676 10676 10675 10674 10673 10673 10672 10671 10670 10670 10669 10668 10667 10668 10668 10668 10667 10667 10668 10669 10669 10669 10670 10669 10668 10666 10665 10663 10663 10665 10664 10662 10661 10660 10660 10659 10658 10657 10657 10656 10655 10653 10652 10651 10649 10648 10647 10645 10644 10643 10641 10640 10639 10638 10636 10635 10635 10633 10633 10632 10631 10630 10629 10629 10628 10627 10626 10626
10664 10665 10666 10668 10669 10670 10672 10673 10674 10674 10674 10674 10674 10674 10673 10673 10672 10671 10671 10670 10670 10669 10668 10668 10666 10665 10665 10665 10665 10664 10665 10665 10665 10665 10665 10665 10665 10666 10666 10666 10666 10664 10663 10661 10659 10660 10661 10660 10658 10657 10656 10656 10655 10655 10654 10653 10652 10651 10650 10648 10647 10645 10644 10642 10641 10640 10638 10637 10636 10634 10633 10631 10630 10629 10627 10626 10625 10624 10623 10623 10622 10621 10620 10620 10619
10660 10661 10663 10664 10665 10666 10668 10669 10670 10670 10669 10668 10669 10669 10669 10668 10667 10667 10667 10666 10665 10664 10663 10663 10662 10661 10661 10661 10661 10661 10661 10662 10662 10662 10662 10662 10662 10662 10662 10662 10661 10660 10659 10658 10655 10655 10657 10657 10654 10653 10653 10652 10652 10651 10651 10650 10649 10647 10646 10644 10643 10641 10640 10638 10636 10635 10633 10632 10631 10629 10628 10626 10625 10623 10621 10620 10619 10618 10617 10616 10615 10614 10613 10612 10611
10656 10657 10659 10660 10661 10662 10663 10664 10665 10665 10664 10664 10663 10663 10664 10664 10663 10662 10662 10661 10661 10660 10659 10659 10658 10657 10656 10657 10657 10657 10658 10658 10659 10659 10659 10659 10659 10659 10659 10658 10657 10655 10655 10655 10653 10651 10653 10653 10651 10650 10650 10649 10648 10648 10647 10645 10644 10643 10641 10640 10639 10637 10636 10634 10632 10630 10629 10627 10626 10624 10623 10621 10619 10618 10616 10615 10613 10612 10611 10610 10609 10608 10606 10605 10604
10652 10653 10654 10655 10656 10657 10659 10659 10660 10660 10659 10659 10658 10658 10658 10658 10658 10657 10657 10657 10656 10655 10655 10655 10655 10654 10653 10653 10653 10653 10654 10654 10655 10655 10655 10655 10655 10656 10656 10655 10654 10652 10651 10652 10650 10649 10649 10649 10648 10647 10646 10645 10645 10643 10642 10641 10640 10638 10637 10635 10634 10633 10631 10629 10627 10625 10624 10622 10621 10619 10617 10616 10614 10612 10611 10609 10608 10607 10605 10604 10603 10602 10600 10599 10598
10648 10648 10649 10651 10652 10653 10654 10655 10655 10654 10654 10654 10653 10653 10652 10653 10653 10652 10652 10652 10651 10651 10651 10651 10651 10650 10650 10649 10649 10650 10650 10651 10651 10651 10650 10650 10651 10652 10652 10652 10650 10648 10648 10648 10648 10646 10645 10645 10645 10644 10642 10641 10641 10639 10637 10637 10635 10633 10632 10631 10629 10628 10626 10624 10622 10620 10619 10617 10615 10614 10612 10610 10608 10607 10605 10603 10602 10601 10599 10598 10597 10596 10594 10593 10592
10644 10644 10645 10646 10647 10648 10649 10650 10650 10650 10649 10649 10648 10648 10647 10647 10647 10647 10647 10647 10647 10647 10647 10647 10647 10647 10646 10646 10646 10646 10647 10647 10647 10647 10647 10646 10647 10648 10649 10648 10646 10645 10645 10645 10644 10643 10642 10641 10641 10640 10638 10636 10637 10636 10633 10632 10630 10628 10627 10625 10624 10623 10621 10619 10617 10615 10613 10612 10610 10608 10607 10605 10603 10601 10599 10598 10596 10595 10593 10592 10591 10589 10588 10587 10585
10639 10640 10640 10641 10642 10643 10644 10645 10645 10645 10644 10644 10643 10643 10643 10642 10642 10642 10642 10643 10643 10643 10644 10644 10644 10644 10643 10643 10642 10642 10643 10643 10644 10644 10643 10642 10642 10644 10645 10644 10642 10642 10641 10641 10641 10640 10639 10637 10636 10636 10634 10631 10631 10632 10629 10627 10626 10624 10622 10620 10618 10617 10616 10614 10612 10610 10608 10606 10605 10602 10600 10598 10596 10595 10593 10591 10590 10589 10587 10586 10585 10583 10582 10580 10579
10635 10635 10635 10636 10637 10638 10638 10639 10639 10639 10639 10639 10638 10638 10638 10638 10638 10638 10638 10638 10639 10640 10640 10641 10641 10640 10640 10640 10639 10639 10639 10640 10640 10640 10639 10639 10639 10639 10640 10640 10639 10638 10637 10636 10636 10636 10635 10633 10631 10631 10630 10626 10625 10625 10624 10622 10620 10619 10617 10614 10612 10612 10611 10609 10606 10605 10603 10601 10599 10597 10594 10592 10590 10588 10587 10585 10584 10583 10581 10580 10579 10577 10576 10574 10572
10630 10630 10630 10631 10632 10633 10633 10633 10633 10633 10633 10633 10633 10633 10633 10633 10633 10633 10634 10634 10635 10636 10637 10637 10637 10636 10636 10636 10635 10635 10636 10636 10637 10637 10636 10636 10635 10635 10635 10635 10635 10634 10632 10631 10630 10630 10630 10628 10626 10625 10625 10622 10619 10618 10618 10616 10614 10612 10611 10609 10605 10604 10606 10605 10600 10598 10597 10596 10594 10591 10589 10586 10584 10583 10581 10579 10578 10576 10575 10574 10572 10570 10569 10567 10566
10624 10624 10625 10626 10627 10628 10628 10628 10628 10627 10627 10627 10628 10628 10628 10628 10629 10629 10630 10630 10631 10632 10633 10633 10632 10631 10631 10632 10632 10632 10632 10633 10634 10633 10633 10632 10632 10631 10630 10630 10631 10630 10629 10626 10624 10624 10624 10623 10621 10619 10619 10618 10615 10612 10611 10610 10609 10606 10604 10603 10599 10596 10598 10599 10596 10593 10590 10589 10588 10585 10583 10581 10578 10577 10575 10573 10571 10569 10568 10566 10565 10563 10561 10559 10558
10619 10619 10620 10621 10622 10623 10623 10623 10622 10622 10622 10622 10623 10623 10623 10624 10624 10625 10625 10626 10627 10629 10629 10628 10627 10627 10627 10629 10629 10628 10629 10629 10630 10629 10628 10627 10627 10626 10625 10624 10624 10625 10625 10623 10619 10617 10617 10617 10616 10614 10612 10612 10611 10607 10604 10602 10603 10602 10599 10597 10593 10591 10590 10591 10590 10587 10584 10583 10581 10578 10576 10574 10572 10569 10568 10566 10564 10562 10560 10559 10557 10555 10553 10551 10550
10614 10614 10615 10617 10618 10619 10619 10618 10617 10617 10617 10618 10618 10618 10619 10619 10620 10620 10621 10622 10623 10625 10624 10623 10622 10623 10624 10625 10625 10625 10624 10624 10624 10624 10623 10623 10622 10622 10621 10619 10618 10618 10619 10619 10616 10612 10610 10609 10609 10608 10606 10604 10604 10603 10600 10597 10595 10596 10595 10592 10589 10585 10583 10581 10580 10579 10577 10576 10574 10571 10569 10567 10565 10562 10560 10558 10556 10554 10552 10551 10550 10547 10544 10542 10541
10609 10609 10611 10612 10614 10615 10614 10613 10612 10613 10613 10613 10613 10614 10614 10614 10614 10615 10616 10618 10619 10619 10618 10618 10618 10619 10620 10621 10620 10620 10619 10618 10618 10618 10618 10618 10617 10616 10616 10614 10612 10611 10611 10611 10611 10608 10605 10603 10602 10601 10600 10598 10597 10597 10596 10593 10589 10587 10586 10586 10583 10580 10576 10573 10570 10568 10568 10568 10567 10564 10562 10560 10558 10555 10552 10550 10548 10546 10543 10542 10541 10539 10536 10534 10531
10603 10605 10607 10608 10610 10610 10608 10608 10608 10609 10609 10609 10609 10609 10609 10610 10610 10611 10612 10613 10614 10614 10613 10614 10614 10614 10615 10616 10615 10615 10614 10613 10612 10611 10612 10611 10611 10610 10609 10608 10607 10606 10604 10603 10603 10602 10600 10598 10596 10595 10593 10591 10589 10587 10586 10586 10584 10580 10578 10576 10576 10573 10570 10566 10562 10559 10558 10558 10558 10557 10554 10552 10550 10547 10543 10541 10539 10536 10534 10533 10532 10531 10528 10525 10522
10599 10601 10603 10604 10605 10604 10603 10603 10605 10605 10605 10605 10605 10605 10606 10606 10606 10607 10608 10609 10609 10609 10610 10610 10609 10610 10610 10611 10610 10609 10608 10607 10606 10606 10606 10605 10604 10603 10602 10601 10601 10599 10597 10595 10594 10594 10593 10591 10589 10587 10585 10583 10580 10578 10576 10575 10575 10574 10572 10570 10568 10566 10564 10559 10555 10551 10548 10547 10548 10547 10545 10544 10543 10540 10537 10534 10531 10528 10525 10523 10522 10521 10520 10517 10514
10595 10596 10598 10599 10600 10599 10598 10599 10601 10602 10601 10600 10600 10601 10601 10602 10602 10602 10603 10604 10604 10604 10605 10605 10604 10604 10604 10604 10604 10603 10602 10601 10600 10600 10599 10598 10597 10596 10595 10594 10593 10591 10589 10587 10586 10585 10584 10582 10581 10579 10578 10576 10573 10570 10568 10567 10565 10564 10563 10562 10561 10559 10557 10554 10550 10545 10541 10539 10538 10536 10535 10533 10532 10532 10530 10527 10525 10523 10519 10516 10513 10511 10510 10509 10506
10590 10591 10592 10594 10595 10595 10593 10594 10596 10597 10597 10596 10596 10596 10596 10596 10597 10596 10597 10598 10599 10599 10599 10599 10598 10597 10596 10596 10597 10597 10596 10596 10594 10593 10592 10591 10590 10588 10587 10586 10584 10582 10580 10578 10576 10576 10575 10574 10572 10571 10570 10568 10566 10563 10561 10560 10557 10555 10553 10553 10551 10549 10547 10546 10545 10541 10537 10535 10532 10529 10526 10523 10520 10521 10520 10517 10516 10515 10512 10509 10505 10501 10499 10498 10496
10582 10584 10588 10591 10592 10591 10589 10589 10590 10592 10591 10590 10590 10590 10590 10591 10591 10591 10590 10591 10592 10592 10592 10593 10591 10589 10588 10588 10589 10589 10590 10589 10588 10586 10585 10583 10582 10581 10580 10578 10576 10574 10572 10569 10567 10567 10566 10565 10563 10561 10560 10559 10557 10555 10554 10552 10550 10548 10546 10544 10541 10538 10536 10535 10535 10533 10530 10529 10528 10525 10522 10519 10515 10513 10511 10508 10507 10505 10501 10497 10492 10487 10485 10485 10484
10577 10580 10585 10587 10587 10585 10584 10583 10584 10585 10585 10585 10584 10584 10585 10585 10585 10584 10584 10584 10584 10584 10585 10586 10585 10582 10581 10581 10581 10581 10582 10582 10581 10580 10578 10576 10574 10573 10572 10570 10568 10566 10563 10561 10559 10559 10558 10557 10555 10553 10551 10550 10548 10547 10545 10543 10540 10538 10537 10536 10532 10528 10526 10524 10522 10521 10519 10518 10518 10517 10515 10512 10509 10507 10502 10498 10497 10496 10492 10488 10482 10474 10470 10471 10470
10572 10575 10578 10580 10580 10579 10578 10578 10578 10579 10579 10579 10578 10578 10579 10579 10579 10578 10577 10577 10577 10577 10578 10578 10578 10576 10574 10573 10572 10573 10573 10573 10572 10571 10569 10568 10566 10565 10563 10562 10560 10558 10556 10554 10553 10552 10551 10550 10548 10546 10544 10542 10540 10538 10536 10534 10530 10528 10527 10526 10522 10518 10517 10514 10512 10511 10508 10505 10505 10505 10503 10499 10498 10496 10492 10488 10485 10483 10481 10480 10476 10468 10462 10461 10461
10566 10568 10570 10571 10572 10573 10573 10573 10572 10572 10573 10572 10572 10572 10572 10572 10572 10571 10571 10571 10571 10571 10572 10571 10570 10568 10566 10565 10565 10565 10565 10565 10563 10561 10560 10559 10558 10557 10555 10553 10552 10551 10550 10548 10547 10546 10544 10542 10540 10538 10536 10533 10531 10529 10527 10524 10521 10518 10517 10516 10513 10510 10508 10505 10503 10501 10498 10495 10494 10493 10489 10486 10485 10483 10481 10478 10474 10471 10470 10469 10468 10463 10457 10453 10451
10560 10561 10562 10562 10564 10565 10566 10566 10565 10565 10566 10565 10565 10565 10565 10565 10565 10564 10564 10564 10564 10565 10565 10565 10562 10560 10559 10559 10558 10557 10557 10556 10555 10554 10553 10552 10550 10549 10547 10546 10544 10543 10542 10540 10538 10536 10534 10533 10530 10528 10526 10524 10522 10520 10518 10515 10512 10509 10507 10506 10503 10501 10500 10498 10494 10491 10490 10488 10486 10482 10478 10475 10473 10471 10469 10467 10463 10459 10458 10456 10455 10454 10449 10444 10441